AFR96X BGGH-LFPG

Flight info

Callsign AFR96X
Flight time N/A
Altitude 41000
Route GH DCT 64N050W DCT 63N040W 62N030W 60N020W/N0481F410 DCT MIMKU DCT NEVRI DCT LIPGO DCT MID UL612 BOGNA DCT HARDY UM605 BIBAX
Aircraft A359/H-SDE2E3GHIJ3J4J5LM1ORWXY/LB1D1

Departure

Time 2026-04-28 20:08
Airport Nuuk International Airport (BGGH)

Arrival

Time N/A
Airport Charles de Gaulle International Airport (LFPG)
Time Latitude Longitude Altitude Speed Heading
2026-04-28 19:23 64.19142 -51.67476 292 ft 0 kts 113°
2026-04-28 19:24 64.19144 -51.67494 292 ft 2 kts 123°
2026-04-28 19:24 64.19140 -51.67499 294 ft 2 kts 155°
2026-04-28 19:24 64.19137 -51.67496 296 ft 0 kts 158°
2026-04-28 19:41 64.19141 -51.67475 287 ft 0 kts 114°
2026-04-28 19:42 64.19142 -51.67475 287 ft 0 kts 114°
2026-04-28 19:42 64.19142 -51.67476 287 ft 0 kts 114°
2026-04-28 19:48 64.19142 -51.67479 287 ft 2 kts 114°
2026-04-28 19:49 64.19145 -51.67516 286 ft 0 kts 154°
2026-04-28 19:49 64.19131 -51.67496 290 ft 0 kts 184°
2026-04-28 19:57 64.19125 -51.67498 294 ft 1 kts 189°
2026-04-28 19:57 64.19106 -51.67511 286 ft 3 kts 196°
2026-04-28 19:57 64.19085 -51.67544 286 ft 5 kts 234°
2026-04-28 19:58 64.19082 -51.67651 291 ft 8 kts 288°
2026-04-28 19:58 64.19099 -51.67769 293 ft 8 kts 289°
2026-04-28 19:58 64.19107 -51.67889 286 ft 8 kts 236°
2026-04-28 19:58 64.19107 -51.67894 286 ft 0 kts 198°
2026-04-28 20:01 64.19027 -51.67962 286 ft 29 kts 200°
2026-04-28 20:01 64.18776 -51.68165 280 ft 56 kts 199°
2026-04-28 20:01 64.18447 -51.68412 272 ft 20 kts 199°
2026-04-28 20:02 64.18291 -51.68521 263 ft 20 kts 197°
2026-04-28 20:02 64.18306 -51.68511 264 ft 8 kts 197°
2026-04-28 20:02 64.18358 -51.68475 268 ft 8 kts 197°
2026-04-28 20:02 64.18410 -51.68443 271 ft 8 kts 200°
2026-04-28 20:03 64.18461 -51.68403 272 ft 8 kts 201°
2026-04-28 20:03 64.18511 -51.68358 275 ft 8 kts 199°
2026-04-28 20:03 64.18561 -51.68317 276 ft 8 kts 199°
2026-04-28 20:03 64.18612 -51.68277 276 ft 8 kts 197°
2026-04-28 20:04 64.18664 -51.68240 278 ft 8 kts 197°
2026-04-28 20:04 64.18715 -51.68204 279 ft 8 kts 197°
2026-04-28 20:04 64.18766 -51.68167 280 ft 8 kts 197°
2026-04-28 20:04 64.18818 -51.68130 282 ft 8 kts 197°
2026-04-28 20:05 64.18870 -51.68094 284 ft 8 kts 197°
2026-04-28 20:05 64.18921 -51.68058 285 ft 8 kts 197°
2026-04-28 20:05 64.18973 -51.68023 286 ft 8 kts 196°
2026-04-28 20:05 64.19025 -51.67989 288 ft 8 kts 196°
2026-04-28 20:06 64.19038 -51.67980 293 ft 0 kts 195°
2026-04-28 20:07 64.18891 -51.68079 285 ft 68 kts 197°
2026-04-28 20:07 64.18123 -51.68639 265 ft 160 kts 199°
2026-04-28 20:08 64.17049 -51.69496 1123 ft 160 kts 203°
2026-04-28 20:08 64.16121 -51.70628 2149 ft 148 kts 220°
2026-04-28 20:08 64.15308 -51.72113 2760 ft 151 kts 222°
2026-04-28 20:08 64.14479 -51.73587 3340 ft 153 kts 219°
2026-04-28 20:09 64.13558 -51.75094 3590 ft 173 kts 216°
2026-04-28 20:09 64.12354 -51.76073 3759 ft 196 kts 185°
2026-04-28 20:09 64.10938 -51.76026 4014 ft 213 kts 176°
2026-04-28 20:09 64.09429 -51.75751 4669 ft 218 kts 176°
2026-04-28 20:10 64.07894 -51.75476 5293 ft 231 kts 177°
2026-04-28 20:10 64.06199 -51.75198 5633 ft 257 kts 177°
2026-04-28 20:10 64.04370 -51.74913 6375 ft 266 kts 177°
2026-04-28 20:10 64.02520 -51.74630 7222 ft 272 kts 178°
2026-04-28 20:11 64.00602 -51.74342 8061 ft 278 kts 178°
2026-04-28 20:11 63.98649 -51.74022 8924 ft 284 kts 176°
2026-04-28 20:11 63.96716 -51.72936 9669 ft 291 kts 159°
2026-04-28 20:11 63.94884 -51.71015 9978 ft 295 kts 154°
2026-04-28 20:12 63.93049 -51.68883 10024 ft 297 kts 154°
2026-04-28 20:12 63.91193 -51.66723 10019 ft 298 kts 154°
2026-04-28 20:12 63.89347 -51.64598 10018 ft 298 kts 154°
2026-04-28 20:12 63.88132 -51.63210 10067 ft 298 kts 154°
2026-04-28 20:13 63.85688 -51.60191 10227 ft 302 kts 148°
2026-04-28 20:13 63.83978 -51.57209 10445 ft 323 kts 137°
2026-04-28 20:13 63.82431 -51.53295 10743 ft 346 kts 126°
2026-04-28 20:13 63.81185 -51.48435 11119 ft 364 kts 112°
2026-04-28 20:14 63.80403 -51.42942 11790 ft 370 kts 99°
2026-04-28 20:14 63.80137 -51.37116 12537 ft 373 kts 86°
2026-04-28 20:14 63.80422 -51.31321 13308 ft 374 kts 73°
2026-04-28 20:14 63.81248 -51.25767 14062 ft 373 kts 60°
2026-04-28 20:15 63.82498 -51.20602 14806 ft 375 kts 56°
2026-04-28 20:15 63.83661 -51.15301 15519 ft 382 kts 62°
2026-04-28 20:15 63.84655 -51.09649 16197 ft 389 kts 65°
2026-04-28 20:15 63.85549 -51.03812 16858 ft 395 kts 67°
2026-04-28 20:16 63.86395 -50.97853 17593 ft 399 kts 68°
2026-04-28 20:16 63.87235 -50.91782 18328 ft 404 kts 68°
2026-04-28 20:16 63.88084 -50.85638 18975 ft 409 kts 68°
2026-04-28 20:16 63.88939 -50.79499 19670 ft 413 kts 67°
2026-04-28 20:17 63.89819 -50.73239 20305 ft 418 kts 67°
2026-04-28 20:17 63.90707 -50.66932 20997 ft 421 kts 67°
2026-04-28 20:17 63.91607 -50.60564 21623 ft 426 kts 67°
2026-04-28 20:17 63.92518 -50.54114 22263 ft 431 kts 67°
2026-04-28 20:18 63.93438 -50.47589 22891 ft 435 kts 67°
2026-04-28 20:18 63.94051 -50.43224 23334 ft 438 kts 67°
2026-04-28 20:18 63.95297 -50.34310 24054 ft 445 kts 67°
2026-04-28 20:18 63.96231 -50.27578 24592 ft 449 kts 67°
2026-04-28 20:19 63.97172 -50.20773 25113 ft 453 kts 67°
2026-04-28 20:19 63.97800 -50.16219 25462 ft 456 kts 67°
2026-04-28 20:19 63.98738 -50.09270 25994 ft 461 kts 69°
2026-04-28 20:19 63.99494 -49.99628 26679 ft 475 kts 82°
2026-04-28 20:20 63.99456 -49.92036 27207 ft 484 kts 91°
2026-04-28 20:20 63.99118 -49.84371 27752 ft 488 kts 93°
2026-04-28 20:20 63.98817 -49.79167 28106 ft 492 kts 95°
2026-04-28 20:20 63.98312 -49.71419 28556 ft 496 kts 95°
2026-04-28 20:21 63.97780 -49.63729 29042 ft 500 kts 96°
2026-04-28 20:21 63.97228 -49.55848 29501 ft 504 kts 96°
2026-04-28 20:21 63.96678 -49.47929 29983 ft 508 kts 96°
2026-04-28 20:21 63.96130 -49.39949 30372 ft 512 kts 96°
2026-04-28 20:22 63.95583 -49.31907 30718 ft 515 kts 96°
2026-04-28 20:22 63.95034 -49.23832 31065 ft 518 kts 96°
2026-04-28 20:22 63.94479 -49.15698 31394 ft 521 kts 96°
2026-04-28 20:22 63.93917 -49.07531 31714 ft 524 kts 96°
2026-04-28 20:23 63.93348 -48.99320 32018 ft 527 kts 97°
2026-04-28 20:23 63.92769 -48.91061 32306 ft 530 kts 97°
2026-04-28 20:23 63.92190 -48.82867 32591 ft 533 kts 97°
2026-04-28 20:23 63.91596 -48.74547 32962 ft 533 kts 97°
2026-04-28 20:24 63.90998 -48.66231 33129 ft 534 kts 97°
2026-04-28 20:24 63.89786 -48.49602 33139 ft 533 kts 98°
2026-04-28 20:25 63.88556 -48.32993 33117 ft 533 kts 98°
2026-04-28 20:25 63.87310 -48.16444 33123 ft 532 kts 98°
2026-04-28 20:26 63.86045 -47.99899 33108 ft 532 kts 98°
2026-04-28 20:26 63.84762 -47.83373 33110 ft 532 kts 98°
2026-04-28 20:27 63.83457 -47.66837 33094 ft 532 kts 99°
2026-04-28 20:27 63.82136 -47.50339 33088 ft 532 kts 99°
2026-04-28 20:28 63.80806 -47.33978 33086 ft 532 kts 99°
2026-04-28 20:28 63.79447 -47.17515 33069 ft 533 kts 99°
2026-04-28 20:29 63.78068 -47.01038 33077 ft 533 kts 99°
2026-04-28 20:29 63.76668 -46.84570 33069 ft 532 kts 100°
2026-04-28 20:30 63.75257 -46.68194 33072 ft 531 kts 100°
2026-04-28 20:30 63.73835 -46.51924 33060 ft 531 kts 100°
2026-04-28 20:31 63.72387 -46.35582 33050 ft 531 kts 100°
2026-04-28 20:31 63.70918 -46.19236 33040 ft 531 kts 101°
2026-04-28 20:32 63.69433 -46.02927 33039 ft 531 kts 101°
2026-04-28 20:32 63.67931 -45.86654 33030 ft 531 kts 101°
2026-04-28 20:33 63.66408 -45.70368 33021 ft 531 kts 101°
2026-04-28 20:33 63.64867 -45.54111 33006 ft 531 kts 101°
2026-04-28 20:34 63.63310 -45.37885 33010 ft 530 kts 102°
2026-04-28 20:34 63.61748 -45.21820 32990 ft 528 kts 102°
2026-04-28 20:35 63.60160 -45.05689 32982 ft 528 kts 102°
2026-04-28 20:35 63.58554 -44.89574 32984 ft 529 kts 102°
2026-04-28 20:36 63.56930 -44.73477 32958 ft 529 kts 102°
2026-04-28 20:36 63.55286 -44.57384 32949 ft 531 kts 102°
2026-04-28 20:37 63.53611 -44.41184 32921 ft 534 kts 103°
2026-04-28 20:37 63.51918 -44.25006 32924 ft 533 kts 103°
2026-04-28 20:38 63.50204 -44.08813 32897 ft 533 kts 103°
2026-04-28 20:38 63.48470 -43.92635 32889 ft 537 kts 103°
2026-04-28 20:39 63.46714 -43.76436 32855 ft 535 kts 104°
2026-04-28 20:39 63.44929 -43.60167 32855 ft 541 kts 104°
2026-04-28 20:40 63.43123 -43.43892 32590 ft 545 kts 104°
2026-04-28 20:40 63.42199 -43.35643 32735 ft 548 kts 104°
2026-04-28 20:40 63.41278 -43.27467 33457 ft 536 kts 105°
2026-04-28 20:40 63.40371 -43.19439 34052 ft 533 kts 105°
2026-04-28 20:41 63.39456 -43.11391 34162 ft 537 kts 105°
2026-04-28 20:41 63.38530 -43.03316 34467 ft 536 kts 105°
2026-04-28 20:41 63.37607 -42.95295 34785 ft 534 kts 105°
2026-04-28 20:41 63.36676 -42.87248 34911 ft 538 kts 106°
2026-04-28 20:42 63.35733 -42.79160 35087 ft 539 kts 106°
2026-04-28 20:42 63.34791 -42.71108 35576 ft 533 kts 106°
2026-04-28 20:42 63.33854 -42.63118 35823 ft 535 kts 106°
2026-04-28 20:42 63.32906 -42.55094 35939 ft 537 kts 106°
2026-04-28 20:43 63.31950 -42.47058 36207 ft 535 kts 106°
2026-04-28 20:43 63.31011 -42.39208 36655 ft 531 kts 106°
2026-04-28 20:43 63.30054 -42.31244 36713 ft 536 kts 107°
2026-04-28 20:43 63.29086 -42.23245 36907 ft 536 kts 106°
2026-04-28 20:44 63.28116 -42.15267 37277 ft 533 kts 107°
2026-04-28 20:44 63.27149 -42.07334 37623 ft 529 kts 107°
2026-04-28 20:44 63.26188 -41.99496 38113 ft 524 kts 107°
2026-04-28 20:44 63.25226 -41.91696 38315 ft 525 kts 107°
2026-04-28 20:45 63.24256 -41.83881 38408 ft 526 kts 107°
2026-04-28 20:45 63.23276 -41.76025 38511 ft 527 kts 107°
2026-04-28 20:45 63.22295 -41.68197 38648 ft 527 kts 107°
2026-04-28 20:45 63.21309 -41.60367 38812 ft 527 kts 107°
2026-04-28 20:46 63.20320 -41.52555 38976 ft 526 kts 107°
2026-04-28 20:46 63.19328 -41.44757 39108 ft 526 kts 107°
2026-04-28 20:46 63.18331 -41.36954 39240 ft 526 kts 107°
2026-04-28 20:46 63.17331 -41.29164 39378 ft 526 kts 108°
2026-04-28 20:47 63.16323 -41.21361 39391 ft 529 kts 107°
2026-04-28 20:47 63.14286 -41.05704 39606 ft 529 kts 107°
2026-04-28 20:47 63.13265 -40.97908 39735 ft 529 kts 108°
2026-04-28 20:48 63.12237 -40.90098 39851 ft 529 kts 108°
2026-04-28 20:48 63.11206 -40.82306 39966 ft 528 kts 108°
2026-04-28 20:48 63.10173 -40.74535 40069 ft 528 kts 108°
2026-04-28 20:48 63.09131 -40.66739 40179 ft 528 kts 108°
2026-04-28 20:49 63.08087 -40.58958 40284 ft 528 kts 108°
2026-04-28 20:49 63.06002 -40.43534 40459 ft 527 kts 109°
2026-04-28 20:49 63.04952 -40.35824 40584 ft 525 kts 109°
2026-04-28 20:50 63.03900 -40.28130 40606 ft 522 kts 109°
2026-04-28 20:50 63.01795 -40.12843 40606 ft 521 kts 109°
2026-04-28 20:51 62.99938 -39.97420 40604 ft 523 kts 101°
2026-04-28 20:51 62.98816 -39.81604 40603 ft 524 kts 100°
2026-04-28 20:52 62.97817 -39.65764 40604 ft 523 kts 100°
2026-04-28 20:52 62.96816 -39.49938 40597 ft 523 kts 100°
2026-04-28 20:53 62.95243 -39.26084 40603 ft 528 kts 100°
2026-04-28 20:53 62.94161 -39.10124 40603 ft 528 kts 100°
2026-04-28 20:54 62.93061 -38.94189 40604 ft 528 kts 101°
2026-04-28 20:54 62.91942 -38.78255 40607 ft 528 kts 101°
2026-04-28 20:55 62.90807 -38.62349 40600 ft 527 kts 101°
2026-04-28 20:55 62.89657 -38.46488 40593 ft 526 kts 102°
2026-04-28 20:56 62.88491 -38.30677 40609 ft 525 kts 102°
2026-04-28 20:56 62.87309 -38.14901 40605 ft 525 kts 102°
2026-04-28 20:57 62.86117 -37.99230 40592 ft 525 kts 102°
2026-04-28 20:57 62.84899 -37.83471 40597 ft 525 kts 102°
2026-04-28 20:58 62.83664 -37.67721 40601 ft 524 kts 102°
2026-04-28 20:58 62.82412 -37.51993 40593 ft 523 kts 103°
2026-04-28 20:59 62.81149 -37.36356 40593 ft 522 kts 103°
2026-04-28 20:59 62.79869 -37.20736 40593 ft 522 kts 103°
2026-04-28 21:00 62.78579 -37.05233 40594 ft 522 kts 103°
2026-04-28 21:00 62.77265 -36.89648 40593 ft 522 kts 103°
2026-04-28 21:01 62.75933 -36.74075 40587 ft 521 kts 103°
2026-04-28 21:01 62.74586 -36.58534 40581 ft 521 kts 103°
2026-04-28 21:02 62.73220 -36.42988 40591 ft 522 kts 104°
2026-04-28 21:02 62.71837 -36.27459 40591 ft 522 kts 104°
2026-04-28 21:03 62.70437 -36.11956 40591 ft 521 kts 104°
2026-04-28 21:03 62.69021 -35.96466 40591 ft 521 kts 104°
2026-04-28 21:04 62.67586 -35.80982 40596 ft 521 kts 104°
2026-04-28 21:04 62.66147 -35.65635 40560 ft 521 kts 105°
2026-04-28 21:05 62.64670 -35.50088 40583 ft 522 kts 105°
2026-04-28 21:05 62.63182 -35.34627 40593 ft 522 kts 105°
2026-04-28 21:06 62.61692 -35.19320 40586 ft 521 kts 105°
2026-04-28 21:06 62.60176 -35.03954 40589 ft 520 kts 105°
2026-04-28 21:07 62.58894 -34.91096 40592 ft 520 kts 106°
2026-04-28 21:07 62.57094 -34.73260 40586 ft 520 kts 106°
2026-04-28 21:08 62.55786 -34.60446 40587 ft 520 kts 106°
2026-04-28 21:08 62.54218 -34.45243 40590 ft 519 kts 106°
2026-04-28 21:09 62.52625 -34.29982 40590 ft 519 kts 107°
2026-04-28 21:09 62.51017 -34.14763 40593 ft 518 kts 107°
2026-04-28 21:10 62.49394 -33.99562 40592 ft 518 kts 107°
2026-04-28 21:10 62.47756 -33.84402 40595 ft 518 kts 107°
2026-04-28 21:11 62.46100 -33.69232 40602 ft 518 kts 108°
2026-04-28 21:11 62.44427 -33.54086 40598 ft 518 kts 108°
2026-04-28 21:12 62.42738 -33.38947 40594 ft 518 kts 108°
2026-04-28 21:12 62.41044 -33.23929 40579 ft 518 kts 108°
2026-04-28 21:13 62.39325 -33.08856 40599 ft 517 kts 108°
2026-04-28 21:13 62.37589 -32.93793 40598 ft 517 kts 108°
2026-04-28 21:14 62.35837 -32.78750 40583 ft 517 kts 109°
2026-04-28 21:14 62.34069 -32.63729 40606 ft 517 kts 109°
2026-04-28 21:15 62.32296 -32.48819 40606 ft 517 kts 109°
2026-04-28 21:15 62.30485 -32.33741 40617 ft 517 kts 109°
2026-04-28 21:16 62.28671 -32.18782 40604 ft 517 kts 109°
2026-04-28 21:16 62.26851 -32.03933 40627 ft 518 kts 109°
2026-04-28 21:17 62.25000 -31.88984 40593 ft 518 kts 110°
2026-04-28 21:17 62.23136 -31.74065 40633 ft 518 kts 110°
2026-04-28 21:18 62.21255 -31.59167 40652 ft 518 kts 110°
2026-04-28 21:18 62.19358 -31.44286 40651 ft 518 kts 110°
2026-04-28 21:19 62.17447 -31.29431 40669 ft 517 kts 110°
2026-04-28 21:19 62.15520 -31.14601 40669 ft 517 kts 110°
2026-04-28 21:20 62.13574 -30.99767 40671 ft 517 kts 110°
2026-04-28 21:20 62.11630 -30.85082 40684 ft 517 kts 111°
2026-04-28 21:21 62.09656 -30.70308 40688 ft 517 kts 111°
2026-04-28 21:21 62.07669 -30.55577 40701 ft 517 kts 111°
2026-04-28 21:22 62.05666 -30.40860 40702 ft 517 kts 111°
2026-04-28 21:22 62.03647 -30.26160 40700 ft 516 kts 111°
2026-04-28 21:23 62.01614 -30.11493 40709 ft 516 kts 111°
2026-04-28 21:23 61.99564 -29.96844 40721 ft 516 kts 112°
2026-04-28 21:24 61.97374 -29.82338 40739 ft 514 kts 114°
2026-04-28 21:24 61.95100 -29.67910 40745 ft 514 kts 114°
2026-04-28 21:25 61.92828 -29.53507 40760 ft 514 kts 114°
2026-04-28 21:25 61.90558 -29.39103 40760 ft 515 kts 114°
2026-04-28 21:26 61.88293 -29.24801 40766 ft 514 kts 114°
2026-04-28 21:26 61.86001 -29.10441 40781 ft 515 kts 114°
2026-04-28 21:27 61.83691 -28.96089 40781 ft 514 kts 114°
2026-04-28 21:27 61.81371 -28.81793 40782 ft 514 kts 114°
2026-04-28 21:28 61.79034 -28.67506 40785 ft 514 kts 114°
2026-04-28 21:28 61.76683 -28.53251 40786 ft 514 kts 114°
2026-04-28 21:29 61.74319 -28.39024 40804 ft 513 kts 115°
2026-04-28 21:29 61.71939 -28.24812 40804 ft 513 kts 115°
2026-04-28 21:30 61.69549 -28.10646 40818 ft 513 kts 115°
2026-04-28 21:30 61.67143 -27.96494 40824 ft 513 kts 115°
2026-04-28 21:31 61.64729 -27.82400 40823 ft 512 kts 115°
2026-04-28 21:31 61.62301 -27.68337 40837 ft 511 kts 115°
2026-04-28 21:32 61.59859 -27.54302 40845 ft 511 kts 116°
2026-04-28 21:32 61.57420 -27.40380 40851 ft 511 kts 116°
2026-04-28 21:33 61.54960 -27.26438 40859 ft 509 kts 116°
2026-04-28 21:33 61.52491 -27.12554 40879 ft 508 kts 116°
2026-04-28 21:34 61.50007 -26.98689 40868 ft 508 kts 116°
2026-04-28 21:34 61.47511 -26.84852 40886 ft 507 kts 116°
2026-04-28 21:35 61.45003 -26.71054 40889 ft 507 kts 117°
2026-04-28 21:35 61.42482 -26.57283 40885 ft 507 kts 117°
2026-04-28 21:36 61.39948 -26.43536 40908 ft 508 kts 117°
2026-04-28 21:36 61.37412 -26.29874 40912 ft 507 kts 117°
2026-04-28 21:37 61.34848 -26.16157 40913 ft 507 kts 117°
2026-04-28 21:37 61.32274 -26.02486 40904 ft 507 kts 117°
2026-04-28 21:38 61.29763 -25.89235 40933 ft 507 kts 117°
2026-04-28 21:38 61.27161 -25.75602 40924 ft 506 kts 118°
2026-04-28 21:39 61.24547 -25.62000 40944 ft 506 kts 118°
2026-04-28 21:39 61.21940 -25.48527 40945 ft 506 kts 118°
2026-04-28 21:40 61.19303 -25.34993 40955 ft 506 kts 118°
2026-04-28 21:40 61.16653 -25.21484 40958 ft 505 kts 118°
2026-04-28 21:41 61.13995 -25.08020 40972 ft 505 kts 118°
2026-04-28 21:41 61.11321 -24.94570 40939 ft 505 kts 118°
2026-04-28 21:42 61.08637 -24.81155 40979 ft 505 kts 118°
2026-04-28 21:42 61.05956 -24.67849 40984 ft 505 kts 119°
2026-04-28 21:43 61.03244 -24.54472 40983 ft 505 kts 119°
2026-04-28 21:43 61.00518 -24.41117 40995 ft 505 kts 119°
2026-04-28 21:44 60.97782 -24.27801 40996 ft 504 kts 119°
2026-04-28 21:44 60.95035 -24.14518 40974 ft 504 kts 120°
2026-04-28 21:45 60.92280 -24.01276 40990 ft 503 kts 120°
2026-04-28 21:45 60.89523 -23.88107 41013 ft 501 kts 120°
2026-04-28 21:46 60.86773 -23.75066 41024 ft 501 kts 120°
2026-04-28 21:46 60.83990 -23.61953 41011 ft 501 kts 120°
2026-04-28 21:47 60.81198 -23.48878 41034 ft 501 kts 120°
2026-04-28 21:47 60.78393 -23.35822 41001 ft 500 kts 121°
2026-04-28 21:48 60.75585 -23.22823 41032 ft 498 kts 121°
2026-04-28 21:48 60.72773 -23.09897 41020 ft 497 kts 121°
2026-04-28 21:49 60.69945 -22.96983 41034 ft 498 kts 121°
2026-04-28 21:49 60.67106 -22.84090 41048 ft 498 kts 121°
2026-04-28 21:50 60.64250 -22.71203 41045 ft 498 kts 121°
2026-04-28 21:50 60.61388 -22.58361 41047 ft 498 kts 121°
2026-04-28 21:51 60.58512 -22.45533 41053 ft 497 kts 122°
2026-04-28 21:51 60.55650 -22.32850 41053 ft 497 kts 122°
2026-04-28 21:52 60.52755 -22.20095 41059 ft 496 kts 122°
2026-04-28 21:52 60.49853 -22.07385 41059 ft 496 kts 122°
2026-04-28 21:53 60.46943 -21.94717 41065 ft 495 kts 122°
2026-04-28 21:53 60.44018 -21.82059 41065 ft 495 kts 122°
2026-04-28 21:54 60.41108 -21.69531 41059 ft 492 kts 123°
2026-04-28 21:54 60.38197 -21.57069 41057 ft 489 kts 123°
2026-04-28 21:55 60.35272 -21.44639 41072 ft 489 kts 123°
2026-04-28 21:55 60.32833 -21.34325 41070 ft 489 kts 123°
2026-04-28 21:56 60.29888 -21.21935 41059 ft 489 kts 123°
2026-04-28 21:56 60.26933 -21.09570 41059 ft 489 kts 123°
2026-04-28 21:57 60.23974 -20.97254 41058 ft 489 kts 123°
2026-04-28 21:57 60.21017 -20.85021 41076 ft 489 kts 123°
2026-04-28 21:58 60.18034 -20.72746 41076 ft 488 kts 123°
2026-04-28 21:58 60.15039 -20.60496 41075 ft 488 kts 124°
2026-04-28 21:59 60.12036 -20.48276 41075 ft 488 kts 124°
2026-04-28 22:00 60.07508 -20.29983 41072 ft 489 kts 124°
2026-04-28 22:00 60.04464 -20.17778 41082 ft 491 kts 124°
2026-04-28 22:01 60.01404 -20.05565 41087 ft 491 kts 124°
2026-04-28 22:01 59.98037 -19.93897 41092 ft 485 kts 129°
2026-04-28 22:02 59.94408 -19.82538 41100 ft 484 kts 130°
2026-04-28 22:02 59.90739 -19.71284 41098 ft 484 kts 130°
2026-04-28 22:03 59.87062 -19.60053 41056 ft 484 kts 130°
2026-04-28 22:03 59.83385 -19.48844 41110 ft 484 kts 130°
2026-04-28 22:04 59.79701 -19.37654 41094 ft 483 kts 130°
2026-04-28 22:04 59.76007 -19.26488 41115 ft 484 kts 130°
2026-04-28 22:05 59.72325 -19.15408 41121 ft 484 kts 130°
2026-04-28 22:05 59.68614 -19.04293 41138 ft 484 kts 130°
2026-04-28 22:06 59.64885 -18.93183 41127 ft 484 kts 130°
2026-04-28 22:06 59.61155 -18.82116 41149 ft 483 kts 130°
2026-04-28 22:07 59.57420 -18.71089 41150 ft 483 kts 130°
2026-04-28 22:07 59.53673 -18.60081 41159 ft 483 kts 130°
2026-04-28 22:08 59.49916 -18.49092 41159 ft 483 kts 131°
2026-04-28 22:08 59.46179 -18.38216 41167 ft 483 kts 131°
2026-04-28 22:09 59.42407 -18.27287 41177 ft 483 kts 130°
2026-04-28 22:09 59.38630 -18.16393 41176 ft 483 kts 130°
2026-04-28 22:10 59.34841 -18.05514 41188 ft 483 kts 131°
2026-04-28 22:10 59.31049 -17.94677 41189 ft 482 kts 131°
2026-04-28 22:11 59.27244 -17.83853 41201 ft 482 kts 131°
2026-04-28 22:11 59.23429 -17.73053 41211 ft 482 kts 131°
2026-04-28 22:12 59.19630 -17.62346 41223 ft 483 kts 131°
2026-04-28 22:12 59.15799 -17.51596 41210 ft 483 kts 130°
2026-04-28 22:13 59.11954 -17.40858 41221 ft 483 kts 131°
2026-04-28 22:13 59.08108 -17.30162 41235 ft 483 kts 131°
2026-04-28 22:14 59.04246 -17.19472 41230 ft 483 kts 131°
2026-04-28 22:14 59.00379 -17.08819 41238 ft 482 kts 130°
2026-04-28 22:15 58.96509 -16.98201 41250 ft 481 kts 131°
2026-04-28 22:15 58.92657 -16.87681 41260 ft 481 kts 131°
2026-04-28 22:16 58.88769 -16.77113 41258 ft 481 kts 131°
2026-04-28 22:16 58.84877 -16.66579 41266 ft 481 kts 131°
2026-04-28 22:17 58.80977 -16.56072 41255 ft 481 kts 130°
2026-04-28 22:17 58.77096 -16.45660 41281 ft 481 kts 130°
2026-04-28 22:18 58.73186 -16.35218 41283 ft 481 kts 130°
2026-04-28 22:18 58.69265 -16.24790 41291 ft 480 kts 130°
2026-04-28 22:19 58.65338 -16.14394 41296 ft 480 kts 131°
2026-04-28 22:19 58.61404 -16.04025 41296 ft 480 kts 131°
2026-04-28 22:20 58.57463 -15.93683 41306 ft 480 kts 130°
2026-04-28 22:20 58.53508 -15.83350 41309 ft 480 kts 131°
2026-04-28 22:21 58.49571 -15.73105 41314 ft 481 kts 130°
2026-04-28 22:21 58.45603 -15.62827 41317 ft 480 kts 130°
2026-04-28 22:22 58.41626 -15.52570 41333 ft 480 kts 131°
2026-04-28 22:22 58.37639 -15.42330 41318 ft 480 kts 130°
2026-04-28 22:23 58.33659 -15.32152 41335 ft 478 kts 130°
2026-04-28 22:23 58.29702 -15.22075 41347 ft 478 kts 130°
2026-04-28 22:24 58.25715 -15.11968 41346 ft 478 kts 131°
2026-04-28 22:24 58.21724 -15.01891 41349 ft 478 kts 131°
2026-04-28 22:25 58.17719 -14.91823 41353 ft 478 kts 131°
2026-04-28 22:25 58.13708 -14.81784 41360 ft 478 kts 130°
2026-04-28 22:26 58.09692 -14.71771 41361 ft 477 kts 130°
2026-04-28 22:26 58.05671 -14.61787 41359 ft 477 kts 130°
2026-04-28 22:27 58.01666 -14.51886 41363 ft 477 kts 130°
2026-04-28 22:27 57.97630 -14.41950 41371 ft 477 kts 131°
2026-04-28 22:28 57.93580 -14.32021 41372 ft 477 kts 131°
2026-04-28 22:28 57.89526 -14.22123 41382 ft 477 kts 131°
2026-04-28 22:29 57.85468 -14.12257 41373 ft 477 kts 131°
2026-04-28 22:29 57.81393 -14.02392 41382 ft 478 kts 131°
2026-04-28 22:30 57.77343 -13.92625 41389 ft 478 kts 131°
2026-04-28 22:30 57.73260 -13.82818 41390 ft 478 kts 131°
2026-04-28 22:31 57.69154 -13.73001 41396 ft 478 kts 130°
2026-04-28 22:31 57.65050 -13.63226 41401 ft 478 kts 130°
2026-04-28 22:32 57.60940 -13.53476 41398 ft 478 kts 130°
2026-04-28 22:32 57.56819 -13.43740 41401 ft 478 kts 131°
2026-04-28 22:33 57.52688 -13.34021 41406 ft 478 kts 131°
2026-04-28 22:33 57.48555 -13.24338 41422 ft 478 kts 130°
2026-04-28 22:34 57.44409 -13.14663 41423 ft 478 kts 130°
2026-04-28 22:34 57.40263 -13.05023 41407 ft 478 kts 130°
2026-04-28 22:35 57.36109 -12.95407 41411 ft 478 kts 131°
2026-04-28 22:35 57.31945 -12.85807 41408 ft 478 kts 131°
2026-04-28 22:36 57.27780 -12.76241 41409 ft 478 kts 131°
2026-04-28 22:36 57.23633 -12.66755 41425 ft 477 kts 131°
2026-04-28 22:37 57.19453 -12.57233 41425 ft 477 kts 131°
2026-04-28 22:37 57.15264 -12.47727 41428 ft 477 kts 131°
2026-04-28 22:38 57.11066 -12.38240 41430 ft 477 kts 131°
2026-04-28 22:38 57.06862 -12.28777 41431 ft 477 kts 131°
2026-04-28 22:39 57.02652 -12.19336 41432 ft 477 kts 131°
2026-04-28 22:39 56.98466 -12.09986 41436 ft 477 kts 131°
2026-04-28 22:40 56.94250 -12.00606 41435 ft 477 kts 132°
2026-04-28 22:40 56.90023 -11.91238 41435 ft 477 kts 132°
2026-04-28 22:41 56.85784 -11.81883 41436 ft 477 kts 132°
2026-04-28 22:41 56.81544 -11.72559 41434 ft 477 kts 132°
2026-04-28 22:42 56.77296 -11.63256 41441 ft 477 kts 132°
2026-04-28 22:42 56.73044 -11.53979 41441 ft 477 kts 132°
2026-04-28 22:43 56.68809 -11.44775 41441 ft 477 kts 132°
2026-04-28 22:43 56.64537 -11.35526 41441 ft 477 kts 132°
2026-04-28 22:44 56.60264 -11.26313 41442 ft 477 kts 132°
2026-04-28 22:44 56.55985 -11.17123 41444 ft 476 kts 132°
2026-04-28 22:45 56.52431 -11.09512 41447 ft 476 kts 132°
2026-04-28 22:45 56.47449 -10.98889 41443 ft 476 kts 132°
2026-04-28 22:46 56.43870 -10.91285 41442 ft 477 kts 132°
2026-04-28 22:46 56.39565 -10.82170 41447 ft 477 kts 132°
2026-04-28 22:47 56.35251 -10.73073 41444 ft 477 kts 132°
2026-04-28 22:47 56.30934 -10.64003 41446 ft 477 kts 132°
2026-04-28 22:48 56.26614 -10.54961 41447 ft 477 kts 132°
2026-04-28 22:48 56.22286 -10.45936 41446 ft 476 kts 132°
2026-04-28 22:49 56.17945 -10.36918 41446 ft 476 kts 132°
2026-04-28 22:49 56.13601 -10.27930 41443 ft 477 kts 132°
2026-04-28 22:50 56.09272 -10.19006 41442 ft 477 kts 131°
2026-04-28 22:50 56.04910 -10.10046 41443 ft 477 kts 132°
2026-04-28 22:51 56.00541 -10.01104 41447 ft 477 kts 132°
2026-04-28 22:51 55.96199 -9.92157 41446 ft 477 kts 131°
2026-04-28 22:52 55.91890 -9.83163 41445 ft 477 kts 131°
2026-04-28 22:52 55.87576 -9.74191 41443 ft 476 kts 131°
2026-04-28 22:53 55.83247 -9.65249 41447 ft 477 kts 131°
2026-04-28 22:53 55.78906 -9.56328 41446 ft 477 kts 131°
2026-04-28 22:54 55.74551 -9.47411 41445 ft 478 kts 131°
2026-04-28 22:54 55.70193 -9.38520 41446 ft 477 kts 131°
2026-04-28 22:55 55.65855 -9.29702 41444 ft 477 kts 131°
2026-04-28 22:55 55.61482 -9.20845 41445 ft 477 kts 131°
2026-04-28 22:56 55.57103 -9.12008 41453 ft 478 kts 131°
2026-04-28 22:56 55.52715 -9.03188 41443 ft 478 kts 131°
2026-04-28 22:57 55.48322 -8.94388 41445 ft 478 kts 131°
2026-04-28 22:57 55.43917 -8.85601 41441 ft 478 kts 130°
2026-04-28 22:58 55.39511 -8.76837 41441 ft 478 kts 130°
2026-04-28 22:58 55.35094 -8.68087 41441 ft 478 kts 131°
2026-04-28 22:59 55.30698 -8.59407 41441 ft 478 kts 131°
2026-04-28 22:59 55.26269 -8.50699 41440 ft 478 kts 131°
2026-04-28 23:00 55.21838 -8.42014 41465 ft 478 kts 130°
2026-04-28 23:00 55.17394 -8.33338 41446 ft 478 kts 131°
2026-04-28 23:01 55.12944 -8.24681 41453 ft 478 kts 131°
2026-04-28 23:01 55.08487 -8.16041 41446 ft 478 kts 131°
2026-04-28 23:02 55.04025 -8.07421 41449 ft 478 kts 131°
2026-04-28 23:02 54.99557 -7.98821 41456 ft 479 kts 130°
2026-04-28 23:03 54.95113 -7.90300 41455 ft 478 kts 130°
2026-04-28 23:03 54.90637 -7.81746 41455 ft 478 kts 130°
2026-04-28 23:04 54.86158 -7.73215 41451 ft 478 kts 131°
2026-04-28 23:04 54.79429 -7.60458 41451 ft 478 kts 131°
2026-04-28 23:05 54.74934 -7.51977 41457 ft 478 kts 130°
2026-04-28 23:05 54.70429 -7.43503 41452 ft 478 kts 130°
2026-04-28 23:06 54.65922 -7.35057 41454 ft 478 kts 130°
2026-04-28 23:06 54.61435 -7.26676 41455 ft 478 kts 130°
2026-04-28 23:07 54.56918 -7.18270 41455 ft 478 kts 130°
2026-04-28 23:07 54.52394 -7.09880 41456 ft 478 kts 130°
2026-04-28 23:08 54.47863 -7.01509 41453 ft 478 kts 130°
2026-04-28 23:08 54.43335 -6.93170 41441 ft 477 kts 130°
2026-04-28 23:09 54.38805 -6.84857 41459 ft 476 kts 130°
2026-04-28 23:09 54.34278 -6.76577 41462 ft 476 kts 130°
2026-04-28 23:10 54.29744 -6.68313 41453 ft 476 kts 130°
2026-04-28 23:10 54.25210 -6.60077 41444 ft 476 kts 130°
2026-04-28 23:11 54.20669 -6.51857 41450 ft 475 kts 130°